[[{"header":{"parameterUnit":"m.s-1","parameterCategory":1,"la1":30.2991,"la2":30.254,"lo1":-89.0895,"lo2":-89.0444,"dy":0.0017,"dx":0.0017,"nx":28,"ny":28,"refTime":"2025-08-27T03:00:00:Z","depth":0,"parameterNumber":2,"parameterNumberName":"U-component_of_WINDS"},"data":[0,0,0,0,0,0,0,0,0,0,0,0,0,0,0,0,0,0,0,0,0,0,0,0,0,0,0,0,0,0,0,0,0,0,0,0,0,0,0,0,0,0,0,0,0,0,0,0,0,0,0,0,0,0,0,0,0,0,-2.7199,-2.7199,0,-2.7238,-2.7239,-2.7239,-2.7114,-2.711,-2.7106,-2.7103,-2.7145,-2.715,-2.7154,0,0,0,0,0,0,0,0,0,0,0,0,0,-2.7016,-2.702,-2.7199,-2.7199,-2.72,-2.7238,-2.7239,-2.7239,-2.7115,-2.711,-2.7105,-2.7101,-2.7143,-2.7149,-2.7155,0,0,0,0,0,0,0,0,0,0,0,0,0,-2.708,-2.7022,-2.7199,-2.7142,-2.7138,-2.7238,-2.7239,-2.7239,-2.7116,-2.711,-2.7104,-2.7099,-2.7142,-2.7148,-2.7155,-2.7313,0,0,-2.7177,-2.718,0,0,0,0,0,0,0,0,-2.7076,-2.7087,-2.715,-2.7146,-2.7141,-2.7165,-2.719,-2.7264,-2.7117,-2.7124,-2.7103,-2.7096,-2.7157,-2.7162,-2.7182,-2.7315,-2.7317,-2.7177,-2.7182,-2.7185,-2.7187,0,0,0,0,0,0,0,-2.7072,-2.7084,-2.7214,-2.7151,-2.7146,-2.7115,-2.7118,-2.7203,-2.7172,-2.7123,-2.7114,-2.712,-2.7153,-2.7175,-2.7182,-2.7317,-2.7177,-2.7183,-2.7188,-2.7191,-2.7581,-2.7586,0,0,0,0,0,0,-2.7075,-2.7081,-2.7213,-2.7216,-2.7094,-2.7123,-2.7126,-2.7163,-2.7171,-2.7166,-2.7125,-2.7114,-2.7166,-2.7174,-2.7183,-2.7368,-2.7185,-2.7191,-2.7195,-2.7575,-2.7582,-2.7589,0,0,0,0,0,0,-2.7072,-2.7088,-2.7212,-2.7146,-2.7159,-2.7132,-2.7175,-2.7167,-2.7189,-2.7172,-2.7166,-2.7154,-2.7162,-2.7173,-2.7281,-2.7368,-2.7194,-2.7201,-2.7567,-2.7577,-2.7585,-2.774,0,0,0,0,0,0,-2.7067,-2.7087,-2.7147,-2.7148,-2.7163,-2.731,-2.718,-2.7172,-2.7202,-2.7188,-2.7197,-2.7194,-2.7158,-2.7271,-2.7288,-2.7374,-2.7206,-2.7559,-2.7572,-2.7582,-2.7727,-2.7753,-2.7775,0,0,0,0,0,-2.7061,-2.719,-2.7151,-2.7167,-2.7237,-2.7315,-2.7323,-2.728,-2.7209,-2.7269,-2.7257,-2.7193,-2.7355,-2.7284,-2.7301,-2.7391,-2.7554,-2.7568,-2.7582,-2.7716,-2.7748,-2.7775,0,0,0,0,0,0,-2.72,-2.7189,-2.7146,-2.7279,-2.7299,-2.7294,-2.7368,-2.7315,-2.7356,-2.7342,-2.7286,-2.729,-2.7408,-2.7409,-2.733,-2.7543,-2.7442,-2.746,-2.7538,-2.7569,-2.7592,-2.759,-2.7212,0,0,0,0,0,-2.7246,-2.731,-2.7296,-2.7415,-2.7427,-2.7396,-2.7428,-2.7392,-2.7411,-2.7419,-2.7416,-2.7437,-2.7492,-2.753,-2.758,-2.7725,-2.7726,-2.7795,-2.782,-2.784,-2.7857,-2.7934,-2.7965,-2.7634,-2.7634,-2.7634,0,0,-2.7343,-2.7344,-2.7388,-2.7443,-2.7454,-2.7522,-2.7404,-2.748,-2.753,-2.7431,-2.7533,-2.7531,-2.7551,-2.7678,-2.7734,-2.7683,-2.7948,-2.7858,-2.7874,-2.788,-2.7951,-2.7983,-2.801,-2.7644,-2.7642,-2.764,0,0,-2.7553,-2.756,-2.7659,-2.7673,-2.7691,-2.7669,-2.7693,-2.7696,-2.769,-2.7791,-2.7718,-2.7776,-2.7873,-2.789,-2.7911,-2.8126,-2.8068,-2.8143,-2.8272,-2.8347,-2.8373,-2.8396,-2.8474,-2.8502,-2.816,-2.816,-2.8161,0,-2.767,-2.7769,-2.7717,-2.7799,-2.7825,-2.7737,-2.7838,-2.7853,-2.7887,-2.7908,-2.7849,-2.7968,-2.7975,-2.8106,-2.8158,-2.8178,-2.8204,-2.8143,-2.8374,-2.8396,-2.8417,-2.849,-2.8519,-2.8169,-2.8168,-2.8167,-2.8167,0,-2.7913,-2.7982,-2.806,-2.8094,-2.8129,-2.822,-2.8182,-2.8224,-2.8185,-2.8169,-2.8273,-2.8278,-2.8327,-2.8355,-2.8318,-2.848,-2.8448,-2.8383,-2.8281,-2.8458,-2.8526,-2.8553,-2.8182,-2.8179,-2.8176,-2.8174,0,0,-2.8214,-2.8217,-2.8247,-2.8261,-2.8274,-2.8327,-2.8413,-2.846,-2.8497,-2.8523,-2.8594,-2.8677,-2.8616,-2.864,-2.8604,-2.867,-2.8841,-2.8597,-2.8596,-2.8643,-2.902,-2.907,-2.9103,-2.8801,-2.8807,-2.8811,-2.9019,0,-2.8421,-2.8569,-2.8525,-2.8673,-2.8736,-2.8653,-2.8728,-2.8744,-2.8731,-2.8783,-2.8768,-2.8828,-2.8743,-2.8757,-2.8819,-2.8807,-2.8916,-2.8791,-2.8868,-2.8872,-2.8868,-2.9139,-2.9192,-2.9388,-2.9045,-2.9049,-2.9052,0,-2.8684,-2.8719,-2.8874,-2.8875,-2.89,-2.8969,-2.9008,-2.9058,-2.9074,-2.906,-2.9087,-2.9036,-2.9121,-2.9017,-2.9132,-2.9049,-2.9077,-2.9076,-2.9082,-2.9089,-2.8974,-2.9154,-2.945,-2.948,-2.9093,-2.909,-2.9087,0,-2.8889,-2.8976,-2.9079,-2.9094,-2.9098,-2.9148,-2.9152,-2.9162,-2.9193,-2.9227,-2.9246,-2.929,-2.9315,-2.935,-2.9313,-2.924,-2.9435,-2.9327,-2.9426,-2.9427,-2.9472,-2.9471,-2.9778,-2.9489,-2.9488,-2.9488,-2.9487,0,-2.9127,-2.9225,-2.9171,-2.9236,-2.9343,-2.9291,-2.9398,-2.9393,-2.9402,-2.9464,-2.9393,-2.9453,-2.9399,-2.9453,-2.9424,-2.9525,-2.9536,-2.9528,-2.9519,-2.9535,-2.9536,-2.9554,-2.954,-2.9495,-2.9494,-2.9492,-2.9491,0,-2.9376,-2.9344,-2.9451,-2.9445,-2.9446,-2.9526,-2.9521,-2.958,-2.956,-2.9639,-2.9655,-2.9626,-2.9686,-2.9651,-2.9713,-2.9693,-2.9825,-2.9797,-2.982,-2.9813,-2.9913,-2.9905,-3.0245,-3.0287,-2.9969,-2.9973,-2.9975,0,-2.953,-2.9604,-2.9605,-2.9641,-2.965,-2.9708,-2.9739,-2.969,-2.9725,-2.9748,-2.9804,-2.9858,-2.9899,-2.9999,-2.9983,-3.003,-3.0003,-3.0119,-3.001,-3.0023,-3.0006,-3.0003,-3.001,-3.0142,-3.0146,-3.0149,-3.0151,0,-2.9808,-2.9788,-2.9835,-2.9877,-2.9916,-2.9946,-2.9971,-3.0004,-2.9955,-2.9998,-3.0058,-3.0089,-3.0152,-3.0206,-3.0246,-3.0249,-3.0193,-3.0185,-3.021,-3.0228,-3.0239,-3.0235,-2.9881,-3.0178,-3.0175,-3.0173,-3.0172,-3.0171,-3.0015,-3.0076,-3.0087,-3.0141,-3.0154,-3.0179,-3.0234,-3.0221,-3.027,-3.0317,-3.0284,-3.0356,-3.0369,-3.0416,-3.0427,-3.0482,-3.0435,-3.0472,-3.0481,-3.0492,-3.0506,-3.0229,-3.0489,-3.0488,-3.0487,-3.0486,-3.0486,0,-3.029,-3.0292,-3.0343,-3.0379,-3.0422,-3.0363,-3.0387,-3.0427,-3.049,-3.0507,-3.0548,-3.0617,-3.0669,-3.0657,-3.0704,-3.075,-3.0725,-3.0764,-3.0761,-3.0763,-3.0544,-3.0518,-3.0783,-3.0783,-3.0783,-3.0783,-3.0783,-3.0783,-3.0438,-3.0539,-3.052,-3.0626,-3.0627,-3.0696,-3.0715,-3.0737,-3.075,-3.083,-3.0873,-3.0864,-3.0869,-3.0915,-3.096,-3.0955,-3.0976,-3.1025,-3.1011,-3.0808,-3.0778,-3.075,-3.0725,-3.103,-3.103,-3.1225,-3.1226,-3.1228]},{"header":{"parameterUnit":"m.s-1","parameterCategory":1,"la1":30.2991,"la2":30.254,"lo1":-89.0895,"lo2":-89.0444,"dy":0.0017,"dx":0.0017,"nx":28,"ny":28,"refTime":"2025-08-27T03:00:00:Z","depth":0,"parameterNumber":3,"parameterNumberName":"V-component_of_WINDS"},"data":[0,0,0,0,0,0,0,0,0,0,0,0,0,0,0,0,0,0,0,0,0,0,0,0,0,0,0,0,0,0,0,0,0,0,0,0,0,0,0,0,0,0,0,0,0,0,0,0,0,0,0,0,0,0,0,0,0,0,-4.2657,-4.2658,0,-4.2755,-4.2756,-4.2757,-4.2723,-4.2721,-4.2719,-4.2717,-4.2812,-4.2817,-4.2821,0,0,0,0,0,0,0,0,0,0,0,0,0,-4.2433,-4.2437,-4.2656,-4.2658,-4.2659,-4.2755,-4.2756,-4.2758,-4.2724,-4.2721,-4.2718,-4.2716,-4.2811,-4.2816,-4.2822,0,0,0,0,0,0,0,0,0,0,0,0,0,-4.253,-4.2438,-4.2656,-4.2654,-4.2654,-4.2755,-4.2756,-4.2758,-4.2724,-4.2721,-4.2718,-4.2715,-4.2809,-4.2816,-4.2822,-4.293,0,0,-4.2843,-4.2846,0,0,0,0,0,0,0,0,-4.2525,-4.2539,-4.2653,-4.2654,-4.2655,-4.2724,-4.2712,-4.2815,-4.2725,-4.2697,-4.2717,-4.2713,-4.2785,-4.2794,-4.2819,-4.2934,-4.2938,-4.2844,-4.2848,-4.2851,-4.2853,0,0,0,0,0,0,0,-4.2518,-4.2534,-4.2695,-4.2654,-4.2656,-4.2646,-4.2656,-4.2732,-4.2758,-4.27,-4.2697,-4.271,-4.2785,-4.2813,-4.2821,-4.294,-4.2844,-4.285,-4.2854,-4.2857,-4.3146,-4.3149,0,0,0,0,0,0,-4.2511,-4.2529,-4.2692,-4.2698,-4.2581,-4.2652,-4.2664,-4.2705,-4.2757,-4.2762,-4.2712,-4.2708,-4.2803,-4.2813,-4.2824,-4.2952,-4.2851,-4.2857,-4.2861,-4.3142,-4.3147,-4.315,0,0,0,0,0,0,-4.2507,-4.2526,-4.2688,-4.2613,-4.2633,-4.266,-4.2706,-4.2708,-4.2736,-4.2767,-4.2771,-4.2736,-4.28,-4.2815,-4.2904,-4.2955,-4.286,-4.2867,-4.3138,-4.3144,-4.3149,-4.321,0,0,0,0,0,0,-4.2501,-4.2525,-4.2567,-4.2614,-4.2637,-4.2768,-4.2709,-4.2713,-4.2749,-4.2744,-4.279,-4.2795,-4.2799,-4.2894,-4.2911,-4.2963,-4.2872,-4.3133,-4.314,-4.3147,-4.3203,-4.3217,-4.3228,0,0,0,0,0,-4.2493,-4.258,-4.257,-4.259,-4.2691,-4.2771,-4.2784,-4.2788,-4.2753,-4.2795,-4.2815,-4.2793,-4.2947,-4.2903,-4.2922,-4.2977,-4.313,-4.3139,-4.3146,-4.3198,-4.3214,-4.3228,0,0,0,0,0,0,-4.2537,-4.2586,-4.2575,-4.2681,-4.2722,-4.2765,-4.2818,-4.2806,-4.2856,-4.2849,-4.2851,-4.2862,-4.2953,-4.2974,-4.2924,-4.3083,-4.3033,-4.3045,-4.3066,-4.3082,-4.3094,-4.3086,-4.2878,0,0,0,0,0,-4.2559,-4.2622,-4.2661,-4.275,-4.2771,-4.2791,-4.2826,-4.2826,-4.2869,-4.2885,-4.2912,-4.2952,-4.3009,-4.3046,-4.3101,-4.3206,-4.3215,-4.3253,-4.3266,-4.3276,-4.3286,-4.3342,-4.3359,-4.3177,-4.3177,-4.3177,0,0,-4.2605,-4.264,-4.2679,-4.2759,-4.2792,-4.2855,-4.2806,-4.2875,-4.2921,-4.2895,-4.2981,-4.3002,-4.3047,-4.3144,-4.3188,-4.3164,-4.3338,-4.3286,-4.3294,-4.3298,-4.3352,-4.3369,-4.3384,-4.3182,-4.3181,-4.318,0,0,-4.2721,-4.2754,-4.2832,-4.2865,-4.2915,-4.2928,-4.2946,-4.2992,-4.3005,-4.3092,-4.3073,-4.3127,-4.3226,-4.3258,-4.3287,-4.3415,-4.3397,-4.3433,-4.3497,-4.3552,-4.3566,-4.3579,-4.3623,-4.3639,-4.3443,-4.3443,-4.3443,0,-4.2771,-4.2868,-4.2873,-4.2944,-4.2979,-4.296,-4.3037,-4.3068,-4.3133,-4.3156,-4.3129,-4.3252,-4.3281,-4.3385,-4.3417,-4.3442,-4.3461,-4.3427,-4.3564,-4.3577,-4.3588,-4.3631,-4.3647,-4.3447,-4.3447,-4.3446,-4.3446,0,-4.2926,-4.2993,-4.3049,-4.3114,-4.3155,-4.3229,-4.3243,-4.3284,-4.328,-4.3295,-4.3383,-4.3417,-4.3478,-4.3502,-4.3499,-4.3606,-4.3589,-4.3563,-4.3513,-4.361,-4.3649,-4.3666,-4.3453,-4.3451,-4.345,-4.3449,0,0,-4.3072,-4.3139,-4.3159,-4.3188,-4.3241,-4.3292,-4.3364,-4.3425,-4.3459,-4.3504,-4.3563,-4.3647,-4.3623,-4.3657,-4.3656,-4.3704,-4.3802,-4.3672,-4.3673,-4.3694,-4.392,-4.3939,-4.3958,-4.3791,-4.3794,-4.3796,-4.3916,0,-4.3192,-4.332,-4.3327,-4.3442,-4.3503,-4.3486,-4.3548,-4.3587,-4.3602,-4.3655,-4.3671,-4.373,-4.3695,-4.3715,-4.3762,-4.378,-4.3847,-4.3772,-4.3844,-4.3846,-4.3832,-4.3979,-4.3999,-4.4111,-4.3932,-4.3935,-4.3937,0,-4.3348,-4.34,-4.3522,-4.3566,-4.3592,-4.3648,-4.3704,-4.3755,-4.3797,-4.3805,-4.3843,-4.3836,-4.3907,-4.3855,-4.3953,-4.3901,-4.3931,-4.3944,-4.3949,-4.3955,-4.3897,-4.3988,-4.4147,-4.4163,-4.3961,-4.3959,-4.3957,0,-4.3441,-4.3541,-4.3627,-4.3652,-4.3706,-4.3745,-4.3769,-4.3809,-4.3845,-4.3893,-4.3916,-4.3971,-4.4001,-4.4043,-4.405,-4.4012,-4.4147,-4.4096,-4.4154,-4.4154,-4.4182,-4.418,-4.4347,-4.4204,-4.4203,-4.4203,-4.4203,0,-4.3573,-4.3648,-4.3669,-4.3722,-4.3805,-4.3811,-4.3892,-4.3913,-4.3948,-4.4003,-4.3991,-4.4042,-4.4049,-4.4101,-4.4107,-4.4186,-4.42,-4.4207,-4.4207,-4.4208,-4.4206,-4.4226,-4.4218,-4.4207,-4.4207,-4.4206,-4.4205,0,-4.3691,-4.3708,-4.38,-4.3844,-4.3857,-4.3916,-4.3952,-4.4002,-4.4016,-4.4086,-4.4102,-4.4125,-4.4186,-4.4197,-4.4269,-4.4273,-4.4367,-4.436,-4.4353,-4.4352,-4.4408,-4.4402,-4.4593,-4.4617,-4.4459,-4.446,-4.4461,0,-4.3773,-4.3831,-4.3882,-4.3918,-4.3945,-4.4004,-4.4041,-4.4048,-4.4087,-4.414,-4.4182,-4.4243,-4.4291,-4.4389,-4.441,-4.4465,-4.4458,-4.4521,-4.4466,-4.4464,-4.4458,-4.4454,-4.4459,-4.4531,-4.4533,-4.4535,-4.4536,0,-4.3918,-4.3924,-4.3978,-4.4036,-4.4081,-4.4126,-4.4169,-4.42,-4.4212,-4.4256,-4.432,-4.4357,-4.4431,-4.449,-4.4545,-4.4567,-4.4553,-4.4553,-4.4569,-4.4569,-4.4563,-4.4566,-4.438,-4.4548,-4.4547,-4.4546,-4.4546,-4.4545,-4.402,-4.407,-4.4113,-4.4174,-4.4208,-4.4248,-4.4297,-4.4318,-4.4371,-4.4433,-4.4434,-4.4503,-4.4542,-4.4614,-4.464,-4.4693,-4.4672,-4.4696,-4.4701,-4.4707,-4.4712,-4.4555,-4.4702,-4.4702,-4.4702,-4.4702,-4.4701,0,-4.4163,-4.419,-4.4246,-4.4307,-4.4355,-4.434,-4.4386,-4.4426,-4.4488,-4.4527,-4.4575,-4.4647,-4.4705,-4.4731,-4.4787,-4.4824,-4.4819,-4.4838,-4.4835,-4.484,-4.4727,-4.4707,-4.4841,-4.4841,-4.4841,-4.4841,-4.4841,-4.4841,-4.4242,-4.4326,-4.4337,-4.4436,-4.4462,-4.4531,-4.4559,-4.4595,-4.4626,-4.4708,-4.4756,-4.4774,-4.4807,-4.4865,-4.4917,-4.4923,-4.4943,-4.4965,-4.4968,-4.4862,-4.4848,-4.4834,-4.4816,-4.497,-4.497,-4.5076,-4.5077,-4.5078]}]]